Find WHDW 05-03

NORAD ID: 64958 Int'l Des: 2025-159 Owner: ZXW Country: CN Constellation: xingwang operational
LEOCIRCULARPOLARONEWEB_TYPE

Live-Position

3D-Globus wird geladen...

Über WHDW 05-03

Beschreibung wird geladen...

Nächste Überflüge

Passes for default location (London). Set your location on the main map for personalized predictions.

Höhenverlauf

Loading altitude history...

Zweizeiliger Elementsatz

1 64958U 25159C 26105.91250921 .00000101 00000-0 20202-3 0 9998
2 64958 86.4873 303.3716 0001598 99.9454 260.1860 13.24424297 34880
Epoch: 15. Apr. 2026 • Age: 13 hours

Aktueller Status

Höhe 1175.3 km
Geschwindigkeit 7.27 km/s
Subsatellitenpunkt 51.04°N, 59.81°W
Startdatum 27. Juli 2025
Alter 0.7 years
Typ other

Technische Details

Klassifizierung Payload
Masse 700.00 kg
Trockenmasse 700.00 kg
Gesamtmasse 700.00 kg
Länge 3.00 m
Durchmesser 1.00 m
Spannweite 10.00 m
Form Box + 2 Pan
Hersteller CAST
Bus-Typ Xingwang C
Phasenstatus In Orbit
Besitzer/Staat ZXW/CN

Most Searched